Regional Weather Roundup
Issued by NWS

Home | Current Version | Previous Version | Graphics & Text | Print | Product List | Glossary On
Versions: 1 2 3 4 5 6 7 8 9 10 11 12 13 14 15 16 17 18 19 20 21 22 23 24 25 26 27 28 29 30 31 32 33 34 35 36 37 38 39 40 41 42 43 44 45 46 47 48 49 50
000
ASUS43 KLMK 010602
RWRKY
KENTUCKY REGIONAL WEATHER ROUNDUP
NATIONAL WEATHER SERVICE LOUISVILLE KY
200 AM EDT WED JUL 01 2015

NOTE "FAIR" INDICATES FEW OR NO CLOUDS BELOW 12,000 FEET
WITH NO SIGNIFICANT WEATHER AND/OR OBSTRUCTIONS TO VISIBILITY.

KYZ001>023-026-027-061>063-070>075-010700-
WESTERN AND SOUTH CENTRAL KENTUCKY

CITY           SKY/WX    TMP DP  RH WIND       PRES   REMARKS
PADUCAH        MOCLDY    73  68  84 SW6       29.91
HENDERSON      MOCLDY    70  66  88 W3        29.89S
OWENSBORO      MOCLDY    70  68  93 W5        29.91S
HOPKINSVILLE   MOCLDY    72  69  92 SW8       29.93S
BOWLING GREEN  PTCLDY    73  68  84 SW7       29.93
GLASGOW        NOT AVBL
$$

KYZ024-025-028>034-038-045-046-053-010700-
NORTH CENTRAL KENTUCKY

CITY           SKY/WX    TMP DP  RH WIND       PRES   REMARKS
LOUISVILLE/SDF PTCLDY    71  63  75 NE6       29.89F
LOUISVILLE/LOU PTCLDY    68  62  81 CALM      29.90
FORT KNOX      PTCLDY    67  65  92 SW5       29.89F
$$

KYZ035>037-039>044-047>052-055>060-089>105-010700-
NORTHEAST KENTUCKY

CITY           SKY/WX    TMP DP  RH WIND       PRES   REMARKS
LEXINGTON      MOCLDY    64  61  90 S5        29.91
COVINGTON      PTCLDY    64  62  93 W5        29.90R FOG
FRANKFORT      RAIN      64  62  93 CALM      29.90  FOG
$$

KYZ054-064>069-076>088-106>120-010700-
SOUTHEAST KENTUCKY

CITY           SKY/WX    TMP DP  RH WIND       PRES   REMARKS
JACKSON        PTCLDY    60  58  92 CALM      29.95R FOG
LONDON         CLEAR     66  60  81 CALM      29.95
SOMERSET       NOT AVBL
MIDDLESBORO    FOG       66  66 100 NW3       29.99F VSB 3/4
MONTICELLO     CLEAR     65  65 100 CALM      29.98F FOG
$$




USA.gov is the U.S. government's official web portal to all federal, state and local government web resources and services.